sat.trackr.live / text

‹ back to catalog

ASTROCAST-0105

NORAD 47517 · 2021-006DH

PAYLOAD ACTIVE UNKNOWN

§ Identity

Operator
Country
SWTZ
Launch date
2021-01-24
Launch site
AFETR
Launch vehicle
Mass (kg)
RCS (m²)

External: N2YO · Heavens-Above · Gunter

§ Orbital elements

Epoch: 2026-05-25T03:36:16.434144Z

Period
90.87 min
Inclination
97.2062°
Eccentricity
0.0007143
Mean motion
15.84735532 rev/d
Perigee alt
312.3 km
Apogee alt
321.9 km
Semi-major
6,695.2 km
B*
1.4350e-3
RAAN
208.5546°
Arg perigee
221.2583°
Mean anomaly
138.8148°
Rev number
29,729

§ Raw data

ASTROCAST-01051 47517U 21006DH  26145.15019021  .00343305  00000+0  14350-2 0  99922 47517  97.2062 208.5546 0007143 221.2583 138.8148 15.84735532297295

JSON: /api/v1/satellites/47517 · /tle

For live sub-satellite position, see the globe view (requires WebGL).

§ Visibility from observer

Set your observer location to see the next 7 days of passes ≥ 10°. The values pass through the URL so the page stays shareable.

No JS? Fill the form by hand. The geolocation button needs JavaScript.